Change the Weather History Date:

Tuesday, May 29, 2012

  Actual Average Record
Temperature  
Mean Temperature 76 °F -  
Max Temperature 87 °F 75 °F 94 °F (1942)
Min Temperature 69 °F 51 °F 34 °F (1965)
Cooling Degree Days 12    
Growing Degree Days 26 (Base 50)    
Moisture  
Dew Point 57 °F    
Average Humidity 52    
Maximum Humidity 88    
Minimum Humidity 23    
Precipitation  
Precipitation 0.03 in - - ()
Sea Level Pressure  
Sea Level Pressure 29.78 in    
Wind  
Wind Speed 8 mph (SW)    
Max Wind Speed 13 mph    
Max Gust Speed 22 mph    
Visibility 9 miles    
Events Rain , Thunderstorm    
Averages and records for this station are not official NWS values.
T = Trace of Precipitation, MM = Missing Value Source: NWS Daily Summary

Daily Weather History Graph

Daily Weather History Graph

Search for Another Location

Airport or City:

Trip Planner

Search our weather history database for the weather conditions in past years. The results will help you decide how hot, cold, wet, or windy it might be!

Date:

Astronomy

May. 29, 2012 Rise Set
Actual Time 6:08 AM EDT 9:02 PM EDT
Civil Twilight 5:35 AM EDT 9:35 PM EDT
Nautical Twilight 4:53 AM EDT 10:17 PM EDT
Astronomical Twilight 4:05 AM EDT 11:06 PM EDT
Moon 2:28 PM EDT (5/29) 2:05 AM EDT (5/29)
Length of Visible Light 16h 00m
Length of Day
14h 54m
First Quarter, 59% of the Moon is Illuminated
May 29
First Quarter
Jun 4
Full
Jun 11
Last Quarter
Jun 19
New
Jun 26
First Quarter

Hourly Weather History & Observations

Time (EDT) Temp. Heat Index Dew Point Humidity Pressure Visibility Wind Dir Wind Speed Gust Speed Precip Events Conditions
12:53 AM 81.0 °F 82.2 °F 63.0 °F 54% 29.77 in 10.0 mi SSW 9.2 mph - N/A   Clear
1:53 AM 81.0 °F 82.2 °F 63.0 °F 54% 29.76 in 10.0 mi SSW 10.4 mph - N/A   Clear
2:53 AM 82.0 °F 83.4 °F 64.0 °F 54% 29.74 in 10.0 mi SSW 12.7 mph - N/A   Mostly Cloudy
3:53 AM 82.0 °F 83.4 °F 64.0 °F 54% 29.73 in 10.0 mi SSW 10.4 mph - N/A   Overcast
4:53 AM 80.1 °F 81.7 °F 64.0 °F 58% 29.73 in 10.0 mi SW 8.1 mph - N/A   Overcast
5:32 AM 78.8 °F - 64.4 °F 61% 29.74 in 10.0 mi SW 5.8 mph - N/A Thunderstorm Scattered Clouds
5:53 AM 79.0 °F - 64.9 °F 62% 29.73 in 10.0 mi SW 5.8 mph - N/A   Partly Cloudy
6:50 AM 77.0 °F - 66.2 °F 69% 29.75 in 7.0 mi WSW 6.9 mph - 0.00 in Thunderstorm Mostly Cloudy
6:53 AM 77.0 °F - 64.9 °F 66% 29.73 in 7.0 mi WSW 5.8 mph - 0.00 in Thunderstorm Scattered Clouds
7:05 AM 77.0 °F - 66.2 °F 69% 29.77 in 8.0 mi SW 8.1 mph - N/A   Partly Cloudy
7:42 AM 73.4 °F - 68.0 °F 83% 29.81 in 5.0 mi SSW 11.5 mph 19.6 mph 0.00 in Rain , Thunderstorm Light Rain
7:53 AM 73.0 °F - 68.0 °F 84% 29.80 in 5.0 mi SSW 11.5 mph 21.9 mph 0.01 in Rain , Thunderstorm Light Rain
8:05 AM 71.6 °F - 68.0 °F 88% 29.82 in 7.0 mi SSW 11.5 mph - 0.00 in   Mostly Cloudy
8:53 AM 69.1 °F - 64.9 °F 87% 29.83 in 10.0 mi SW 9.2 mph - 0.00 in   Mostly Cloudy
9:53 AM 69.1 °F - 64.9 °F 87% 29.84 in 3.0 mi Variable 3.5 mph - 0.02 in Rain Rain
10:53 AM 73.0 °F - 66.9 °F 81% 29.83 in 9.0 mi SW 8.1 mph - 0.00 in   Scattered Clouds
11:53 AM 77.0 °F - 59.0 °F 54% 29.84 in 10.0 mi West 5.8 mph - N/A   Clear
12:53 PM 81.0 °F - 52.0 °F 36% 29.83 in 10.0 mi NW 8.1 mph - N/A   Clear
1:53 PM 81.0 °F - 48.0 °F 31% 29.81 in 10.0 mi NW 8.1 mph 16.1 mph N/A   Clear
2:53 PM 84.0 °F - 44.1 °F 25% 29.79 in 10.0 mi Variable 4.6 mph - N/A   Clear
3:53 PM 82.9 °F - 43.0 °F 24% 29.77 in 10.0 mi SSW 3.5 mph - N/A   Clear
4:53 PM 84.0 °F - 42.1 °F 23% 29.76 in 10.0 mi WSW 5.8 mph - N/A   Clear
5:53 PM 84.0 °F - 44.1 °F 25% 29.76 in 10.0 mi WNW 8.1 mph - N/A   Clear
6:53 PM 82.9 °F - 45.0 °F 26% 29.75 in 10.0 mi Variable 3.5 mph - N/A   Mostly Cloudy
7:53 PM 82.0 °F - 42.1 °F 24% 29.76 in 10.0 mi Variable 5.8 mph - N/A   Partly Cloudy
8:53 PM 79.0 °F - 44.1 °F 29% 29.76 in 10.0 mi WSW 4.6 mph - N/A   Clear
9:53 PM 75.0 °F - 45.0 °F 34% 29.77 in 10.0 mi Variable 3.5 mph - N/A   Clear
10:53 PM 70.0 °F - 46.0 °F 42% 29.79 in 10.0 mi Variable 3.5 mph - N/A   Partly Cloudy
11:53 PM 71.1 °F - 44.1 °F 38% 29.82 in 10.0 mi NNW 10.4 mph - N/A   Clear